Location: Le Rocchette
(44.3500°N, 7.8333°E)
Time: 23:56:22
(UTC+00:00)

Lacrosse 5 rocket - Pass Details

Date: 17 November 2019
Orbit: 460 x 637 km, 57.0° (Epoch: 07 December)

Event Time Altitude Azimuth Distance (km) Brightness Sun altitude
Exits shadow 05:11:00 10° 337° (NNW) 1,599 3.3 -13.5°
Maximum altitude 05:13:29 18° 21° (NNE) 1,200 3.1 -13.1°
Drops below altitude 10° 05:16:03 10° 67° (ENE) 1,608 4.5 -12.7°
Sets 05:18:40 0° 87° (E) 2,485 6.2 -12.2°
